TimePST,TemperatureF,Dew PointF,Humidity,Sea Level PressureIn,VisibilityMPH,Wind Direction,Wind SpeedMPH,Gust SpeedMPH,PrecipitationIn,Events,Conditions,WindDirDegrees,DateUTC
12:15 AM,39.2,33.8,81,29.74,10.0,SSE,5.8,-,N/A,,Overcast,150,2011-11-19 08:15:00
12:35 AM,39.2,33.8,81,29.74,10.0,SSE,9.2,-,N/A,,Overcast,150,2011-11-19 08:35:00
12:55 AM,39.2,33.8,81,29.74,10.0,SE,8.1,-,N/A,,Overcast,140,2011-11-19 08:55:00
1:15 AM,39.2,33.8,81,29.73,10.0,SE,5.8,-,N/A,,Overcast,140,2011-11-19 09:15:00
1:35 AM,39.2,33.8,81,29.72,10.0,SSE,6.9,-,N/A,,Overcast,150,2011-11-19 09:35:00
1:55 AM,39.2,33.8,81,29.73,10.0,SSE,6.9,-,N/A,,Overcast,150,2011-11-19 09:55:00
2:15 AM,39.2,35.6,87,29.73,10.0,SSE,5.8,-,N/A,,Overcast,150,2011-11-19 10:15:00
2:35 AM,39.2,35.6,87,29.73,10.0,SSE,4.6,-,N/A,,Overcast,150,2011-11-19 10:35:00
2:55 AM,39.2,35.6,87,29.72,10.0,SE,5.8,-,0.01,,Overcast,130,2011-11-19 10:55:00
3:15 AM,39.2,35.6,87,29.72,10.0,SSE,4.6,-,N/A,,Overcast,150,2011-11-19 11:15:00
3:35 AM,39.2,35.6,87,29.72,10.0,SSE,3.5,-,0.01,,Overcast,160,2011-11-19 11:35:00
3:55 AM,39.2,35.6,87,29.72,10.0,SSE,4.6,-,0.03,,Overcast,160,2011-11-19 11:55:00
4:15 AM,39.2,35.6,87,29.72,10.0,SE,4.6,-,0.02,,Overcast,140,2011-11-19 12:15:00
4:35 AM,39.2,35.6,87,29.73,10.0,SSE,5.8,-,0.02,,Overcast,150,2011-11-19 12:35:00
4:55 AM,39.2,35.6,87,29.73,10.0,SSE,8.1,-,0.02,,Overcast,160,2011-11-19 12:55:00
5:15 AM,39.2,35.6,87,29.74,10.0,South,5.8,-,N/A,,Overcast,170,2011-11-19 13:15:00
5:35 AM,39.2,33.8,81,29.75,10.0,SSE,6.9,-,N/A,,Overcast,160,2011-11-19 13:35:00
5:55 AM,37.4,35.6,93,29.75,10.0,SSW,5.8,-,N/A,,Overcast,210,2011-11-19 13:55:00
6:15 AM,37.4,33.8,87,29.75,10.0,Calm,Calm,-,N/A,,Overcast,0,2011-11-19 14:15:00
6:35 AM,37.4,33.8,87,29.76,10.0,Calm,Calm,-,N/A,,Overcast,0,2011-11-19 14:35:00
6:55 AM,37.4,33.8,87,29.77,10.0,Calm,Calm,-,N/A,,Overcast,0,2011-11-19 14:55:00
7:15 AM,37.4,33.8,87,29.77,10.0,Calm,Calm,-,N/A,,Overcast,0,2011-11-19 15:15:00
7:35 AM,37.4,33.8,87,29.78,10.0,Calm,Calm,-,N/A,,Overcast,0,2011-11-19 15:35:00
7:55 AM,37.4,33.8,87,29.79,10.0,Calm,Calm,-,N/A,,Overcast,0,2011-11-19 15:55:00
8:15 AM,37.4,33.8,87,29.80,10.0,Calm,Calm,-,N/A,,Overcast,0,2011-11-19 16:15:00
8:55 AM,39.2,33.8,81,29.81,10.0,SSE,5.8,-,N/A,,Overcast,150,2011-11-19 16:55:00
9:15 AM,39.2,35.6,87,29.81,10.0,SSE,6.9,-,N/A,,Overcast,150,2011-11-19 17:15:00
9:35 AM,39.2,35.6,87,29.81,10.0,SSE,6.9,-,N/A,,Overcast,150,2011-11-19 17:35:00
9:55 AM,39.2,35.6,87,29.81,10.0,SSE,9.2,-,N/A,,Overcast,160,2011-11-19 17:55:00
10:15 AM,39.2,33.8,81,29.82,10.0,SSE,6.9,-,N/A,,Mostly Cloudy,150,2011-11-19 18:15:00
10:35 AM,41.0,35.6,81,29.83,10.0,SSE,6.9,-,N/A,,Mostly Cloudy,160,2011-11-19 18:35:00
10:55 AM,41.0,35.6,81,29.83,10.0,SSE,8.1,-,N/A,,Overcast,160,2011-11-19 18:55:00
11:35 AM,42.8,35.6,76,29.83,10.0,SSE,8.1,-,N/A,,Overcast,160,2011-11-19 19:35:00
11:55 AM,42.8,35.6,76,29.83,10.0,South,6.9,-,N/A,,Mostly Cloudy,170,2011-11-19 19:55:00
12:15 PM,44.6,35.6,71,29.83,10.0,South,9.2,-,N/A,,Mostly Cloudy,170,2011-11-19 20:15:00
12:35 PM,44.6,33.8,66,29.83,10.0,South,8.1,-,N/A,,Mostly Cloudy,170,2011-11-19 20:35:00
12:55 PM,44.6,35.6,71,29.83,10.0,South,9.2,-,N/A,,Overcast,190,2011-11-19 20:55:00
1:15 PM,44.6,33.8,66,29.83,10.0,SSW,8.1,-,N/A,,Mostly Cloudy,200,2011-11-19 21:15:00
1:35 PM,44.6,33.8,66,29.83,10.0,South,5.8,-,N/A,,Scattered Clouds,190,2011-11-19 21:35:00
1:55 PM,44.6,33.8,66,29.83,10.0,South,5.8,-,N/A,,Mostly Cloudy,170,2011-11-19 21:55:00
2:15 PM,44.6,33.8,66,29.83,10.0,South,6.9,-,N/A,,Scattered Clouds,190,2011-11-19 22:15:00
2:35 PM,44.6,33.8,66,29.83,10.0,South,8.1,-,N/A,,Clear,180,2011-11-19 22:35:00
2:55 PM,44.6,33.8,66,29.83,10.0,SSW,4.6,-,N/A,,Partly Cloudy,200,2011-11-19 22:55:00
3:35 PM,42.8,32.0,66,29.84,10.0,South,5.8,-,N/A,,Clear,180,2011-11-19 23:35:00
3:55 PM,42.8,33.8,70,29.84,10.0,South,5.8,-,N/A,,Clear,180,2011-11-19 23:55:00
4:15 PM,42.8,32.0,66,29.85,10.0,SSE,3.5,-,N/A,,Clear,160,2011-11-20 00:15:00
4:35 PM,42.8,32.0,66,29.85,10.0,Calm,Calm,-,N/A,,Clear,0,2011-11-20 00:35:00
4:55 PM,39.2,33.8,81,29.85,10.0,NNE,4.6,-,N/A,,Clear,20,2011-11-20 00:55:00
5:15 PM,37.4,33.8,87,29.85,10.0,Calm,Calm,-,N/A,,Clear,0,2011-11-20 01:15:00
5:35 PM,37.4,33.8,87,29.86,10.0,NNE,4.6,-,N/A,,Clear,20,2011-11-20 01:35:00
5:55 PM,37.4,33.8,87,29.86,10.0,Calm,Calm,-,N/A,,Clear,0,2011-11-20 01:55:00
6:15 PM,37.4,33.8,87,29.87,10.0,North,3.5,-,N/A,,Clear,350,2011-11-20 02:15:00
6:35 PM,35.6,32.0,87,29.87,10.0,Calm,Calm,-,N/A,,Clear,0,2011-11-20 02:35:00
6:55 PM,33.8,30.2,87,29.87,10.0,Calm,Calm,-,N/A,,Clear,0,2011-11-20 02:55:00
7:15 PM,33.8,30.2,87,29.87,10.0,Calm,Calm,-,N/A,,Clear,0,2011-11-20 03:15:00
7:35 PM,33.8,30.2,87,29.88,10.0,Calm,Calm,-,N/A,,Clear,0,2011-11-20 03:35:00
7:55 PM,33.8,30.2,87,29.88,10.0,Calm,Calm,-,N/A,,Clear,0,2011-11-20 03:55:00
8:15 PM,32.0,30.2,93,29.88,10.0,Calm,Calm,-,N/A,,Clear,0,2011-11-20 04:15:00
8:35 PM,30.2,28.4,93,29.89,10.0,Calm,Calm,-,N/A,,Clear,0,2011-11-20 04:35:00
8:55 PM,30.2,26.6,86,29.89,10.0,Calm,Calm,-,N/A,,Clear,0,2011-11-20 04:55:00
9:15 PM,30.2,28.4,93,29.90,10.0,Calm,Calm,-,N/A,,Clear,0,2011-11-20 05:15:00
9:35 PM,30.2,26.6,86,29.90,10.0,Calm,Calm,-,N/A,,Clear,0,2011-11-20 05:35:00
10:15 PM,28.4,26.6,93,29.91,10.0,Calm,Calm,-,N/A,,Clear,0,2011-11-20 06:15:00
10:35 PM,28.4,26.6,93,29.91,10.0,Calm,Calm,-,N/A,,Clear,0,2011-11-20 06:35:00
10:55 PM,28.4,26.6,93,29.91,10.0,Calm,Calm,-,N/A,,Clear,0,2011-11-20 06:55:00
11:15 PM,28.4,26.6,93,29.91,10.0,Calm,Calm,-,N/A,,Partly Cloudy,0,2011-11-20 07:15:00
11:35 PM,30.2,28.4,93,29.91,0.8,Calm,Calm,-,N/A,,Overcast,0,2011-11-20 07:35:00
11:55 PM,30.2,28.4,93,29.90,0.5,Calm,Calm,-,N/A,,Overcast,0,2011-11-20 07:55:00